Location: ČR
(50.0000°N, 15.0000°E)
Time: 06:59:01
(UTC+02:00)

A-11 Canister half - Pass Details

Date: 23 March 2026
Orbit: 1514 x 1685 km, 47.2° (Epoch: 18 April)

Event Time Altitude Azimuth Distance (km) Brightness Sun altitude
Rises 19:10:03 0° 289° (WNW) 4,927 14.0 -9.2°
Reaches altitude 10° 19:14:01 10° 276° (W) 3,947 12.7 -9.8°
Maximum altitude 19:21:24 24° 229° (SW) 3,004 10.9 -10.9°
Drops below altitude 10° 19:28:45 10° 181° (S) 3,925 11.0 -12.1°
Sets 19:32:43 0° 169° (SSE) 4,894 11.4 -12.7°
